Wind from 274 at 5 knots gusting 6

Air temperature 6.1° C
Dewpoint 2.0° C

Last reported at 2014-Apr-25 04:51 UTC.
Time now 2014-Apr-25 06:03 UTC

Location: N 40°29' W 003°43'.
View on Google Maps.

See reports from other nearby stations

Tides Stations Pressure Air Temp Water Temp Dewpoint Dewpoint depression Visibility Wind Speed Wind Dir Waves Ship positions

  
sailing weather and tide predictions

DW8626 Madrid ES weather

date/time (UTC)wind fromknots sea level pressurealtimeterstation pressurevisibilityair tempwater tempwave heightnotes
2014-Apr-25 04:51 274 5 gusting 6 6.1
2014-Apr-25 04:36 292 5 gusting 10 6.1
2014-Apr-25 04:21 286 4 gusting 6 6.1
2014-Apr-25 04:06 290 2 gusting 6 6.1
2014-Apr-25 03:51 300 6 gusting 9 6.1
2014-Apr-25 03:36 300 3 gusting 6 6.7
2014-Apr-25 03:21 036 6.7
2014-Apr-25 03:06 287 2 gusting 13 6.7
2014-Apr-25 02:39 263 5 gusting 13 6.7
2014-Apr-25 02:21 291 13 gusting 16 6.7
2014-Apr-25 02:06 262 9 gusting 16 7.2
2014-Apr-25 01:51 284 11 gusting 21 7.2
2014-Apr-25 01:36 273 8 gusting 20 7.2
2014-Apr-25 01:21 314 6 gusting 15 7.2
2014-Apr-25 01:06 325 6 gusting 15 7.2
2014-Apr-25 00:51 304 5 gusting 12 7.8
2014-Apr-24 23:21 317 8 gusting 14 8.3
2014-Apr-24 23:06 308 4 gusting 14 8.3
2014-Apr-24 22:51 287 6 gusting 14 8.3
2014-Apr-24 22:36 302 5 gusting 15 8.3
2014-Apr-24 22:21 218 6 gusting 18 8.3
2014-Apr-24 22:06 263 6 gusting 14 8.3
2014-Apr-24 21:51 233 5 gusting 9 8.3
2014-Apr-24 21:36 253 8.3
2014-Apr-24 21:21 263 0 gusting 2 8.9
2014-Apr-24 21:06 231 0 gusting 4 8.9
2014-Apr-24 20:51 260 8.9
2014-Apr-24 20:21 337 0 gusting 8 8.3
2014-Apr-24 20:06 281 6 gusting 13 8.9
2014-Apr-24 19:51 183 8 gusting 13 10.6
2014-Apr-24 19:36 218 6 gusting 14 10.6
2014-Apr-24 19:23 207 7 gusting 11 11.1
2014-Apr-24 18:51 221 6 gusting 8 11.1
2014-Apr-24 18:37 240 4 gusting 7 10.6
2014-Apr-24 18:23 273 4 gusting 5 10.6
2014-Apr-24 17:36 248 2 gusting 11 10.0
2014-Apr-24 17:22 266 1 gusting 15 10.0
2014-Apr-24 17:07 307 6 gusting 13 10.6
2014-Apr-24 16:23 217 5 gusting 18 16.1
2014-Apr-24 15:52 240 6 gusting 19 16.1
2014-Apr-24 15:37 219 13 gusting 19 16.1
2014-Apr-24 15:22 124 7 gusting 18 15.6
2014-Apr-24 15:06 266 11 gusting 18 15.6
2014-Apr-24 14:52 238 13 gusting 18 15.0
2014-Apr-24 13:53 240 12 gusting 22 15.0
2014-Apr-24 13:37 217 12 gusting 23 15.0
2014-Apr-24 13:22 197 10 gusting 27 15.0
2014-Apr-24 13:07 224 15 gusting 20 14.4
2014-Apr-24 12:52 221 3 gusting 18 14.4
2014-Apr-24 12:36 240 14 gusting 19 13.9
2014-Apr-24 12:22 238 15 gusting 20 13.9
2014-Apr-24 12:07 245 9 gusting 15 13.9
2014-Apr-24 11:52 257 5 gusting 13 13.3
2014-Apr-24 11:38 256 7 gusting 16 13.3
2014-Apr-24 11:22 246 6 gusting 13 12.8
2014-Apr-24 11:08 281 9 gusting 11 12.2
2014-Apr-24 10:37 137 4 gusting 9 12.2
2014-Apr-24 10:23 197 5 gusting 16 12.2
2014-Apr-24 10:08 184 4 gusting 8 12.8
2014-Apr-24 09:52 195 3 gusting 6 12.8
2014-Apr-24 09:36 205 4 gusting 7 12.2
2014-Apr-24 09:26 172 2 gusting 10 11.7
2014-Apr-24 08:38 215 4 gusting 5 11.7
2014-Apr-24 08:07 184 1 gusting 6 11.7
2014-Apr-24 07:52 187 4 gusting 5 11.7
2014-Apr-24 07:37 205 11.1
2014-Apr-24 07:23 170 11.1
2014-Apr-24 06:22 142 0 gusting 3 10.6
2014-Apr-24 06:08 173 10.6
2014-Apr-24 05:53 168 4 gusting 6 11.1
2014-Apr-24 05:38 167 5 gusting 5 11.1
2014-Apr-24 05:22 159 3 gusting 6 11.1
2014-Apr-24 05:06 138 2 gusting 4 11.7
2014-Apr-24 04:51 145 1 gusting 3 11.7
2014-Apr-24 04:36 165 1 gusting 2 11.1
2014-Apr-24 04:23 198 1 gusting 4 11.1
2014-Apr-24 03:51 204 1 gusting 3 11.1
2014-Apr-24 03:36 229 1 gusting 6 11.1
2014-Apr-24 03:21 228 3 gusting 5 11.1
2014-Apr-24 03:06 180 0 gusting 5 11.1
2014-Apr-24 02:51 243 11.7
2014-Apr-24 02:36 190 0 gusting 4 11.7
2014-Apr-24 02:21 218 1 gusting 4 11.7
2014-Apr-24 02:06 158 2 gusting 4 11.7
2014-Apr-24 01:39 147 2 gusting 2 12.2
2014-Apr-24 01:21 187 0 gusting 4 11.7
2014-Apr-24 01:06 210 1 gusting 4 11.7
2014-Apr-24 00:51 150 2 gusting 5 11.7
2014-Apr-24 00:36 195 2 gusting 4 12.2
2014-Apr-24 00:21 165 2 gusting 5 12.2
2014-Apr-24 00:06 221 3 gusting 5 12.8
2014-Apr-23 23:51 215 3 gusting 8 12.8
2014-Apr-23 23:36 258 0 gusting 3 12.8
2014-Apr-23 23:24 243 0 gusting 3 12.8
2014-Apr-23 23:09 158 0 gusting 3 13.3
2014-Apr-23 22:51 214 2 gusting 3 13.3
2014-Apr-23 22:36 271 13.3
2014-Apr-23 22:21 221 1 gusting 4 13.3
2014-Apr-23 22:06 243 2 gusting 4 13.3
2014-Apr-23 21:52 204 13.9
2014-Apr-23 21:36 179 5 gusting 9 13.9
2014-Apr-23 21:21 194 3 gusting 7 13.9
2014-Apr-23 21:06 233 4 gusting 7 14.4
2014-Apr-23 20:54 243 6 gusting 10 14.4
2014-Apr-23 20:39 200 4 gusting 8 14.4
2014-Apr-23 20:21 198 5 gusting 8 15.0
2014-Apr-23 20:06 208 4 gusting 8 15.0
2014-Apr-23 19:51 222 4 gusting 11 15.0
2014-Apr-23 19:36 229 2 gusting 9 15.6
2014-Apr-23 19:21 214 6 gusting 10 15.6
2014-Apr-23 19:07 270 7 gusting 14 16.1
2014-Apr-23 18:51 177 6 gusting 9 16.7
2014-Apr-23 17:53 240 6 gusting 10 17.8
2014-Apr-23 17:37 243 6 gusting 12 18.3
2014-Apr-23 17:21 226 6 gusting 13 18.3
2014-Apr-23 17:06 218 9 gusting 15 17.8
2014-Apr-23 16:51 229 9 gusting 16 17.8
2014-Apr-23 16:36 219 6 gusting 14 17.8
2014-Apr-23 16:22 201 5 gusting 14 18.9
2014-Apr-23 16:06 262 13 gusting 19 18.3
2014-Apr-23 15:22 160 13 gusting 18 17.8
2014-Apr-23 14:52 228 5 gusting 18 17.8
2014-Apr-23 14:37 160 7 gusting 19 17.8
2014-Apr-23 14:22 285 13 gusting 16 17.8
2014-Apr-23 14:08 218 8 gusting 13 18.3
2014-Apr-23 13:53 191 11 gusting 19 17.8
2014-Apr-23 13:37 249 7 gusting 17 17.8
2014-Apr-23 13:22 207 5 gusting 16 17.2
2014-Apr-23 13:07 246 8 gusting 13 17.2
2014-Apr-23 12:53 214 16 gusting 18 17.2
2014-Apr-23 12:36 229 8 gusting 17 17.8
2014-Apr-23 12:22 252 4 gusting 15 17.2
2014-Apr-23 12:06 219 11 gusting 14 17.2
2014-Apr-23 11:52 170 11 gusting 18 16.7
2014-Apr-23 11:37 172 5 gusting 21 16.7
2014-Apr-23 11:22 160 12 gusting 16 16.7
2014-Apr-23 11:07 245 4 gusting 13 16.7
2014-Apr-23 10:22 173 6 gusting 15 16.7
2014-Apr-23 10:07 201 6 gusting 13 16.7
2014-Apr-23 09:51 207 4 gusting 15 16.1
2014-Apr-23 09:36 214 7 gusting 11 15.6
2014-Apr-23 09:22 231 5 gusting 11 15.0
2014-Apr-23 09:07 207 3 gusting 6 15.0
2014-Apr-23 08:52 181 6 gusting 7 14.4
2014-Apr-23 08:36 163 0 gusting 6 13.9
2014-Apr-23 07:51 243 3 gusting 5 11.7
2014-Apr-23 07:36 243 0 gusting 3 11.7
2014-Apr-23 07:22 174 2 gusting 3 11.1
2014-Apr-23 07:07 134 3 gusting 4 11.1
2014-Apr-23 06:52 180 11.1
2014-Apr-23 06:36 176 10.6
2014-Apr-23 06:22 150 10.0
2014-Apr-23 06:06 360 10.0